Simultaneous Nadir Overpasses (SNOs) Predictions

Prediction of SNOs between METOP-C and LANDSAT-8 Satellite Orbit:

Table of predicted SNOs for the next 14.0 days since TLE Epoch: 5/11/2019
Index Date (METOP-C) Time (METOP-C) Lat,Lon (METOP-C) SZA (METOP-C ) Date (LANDSAT-8) Time (LANDSAT-8) Lat,Lon (LANDSAT-8) SZA (LANDSAT-8 ) Distance(km) Time Diff (sec)
1 05/12/2019 21:42:59 81.11,-106.14 65.08 05/12/2019 21:43:51 81.11,-106.13 65.11 0.18 52
2 05/12/2019 22:33:38 -81.14, 62.05 114.82 05/12/2019 22:33:17 -81.14, 61.88 114.85 2.89 21
3 05/15/2019 17:17:21 81.12, -39.52 64.43 05/15/2019 17:18:08 81.11, -39.69 64.43 2.89 47
4 05/15/2019 18:08:01 -81.14, 128.35 115.51 05/15/2019 18:07:34 -81.14, 128.36 115.52 0.21 27
5 05/18/2019 12:51:45 81.11, 26.72 63.78 05/18/2019 12:52:26 81.12, 26.88 63.82 2.83 41
6 05/18/2019 13:42:24 -81.15,-164.97 116.11 05/18/2019 13:41:52 -81.15,-165.05 116.13 1.44 32
7 05/21/2019 08:26:08 81.12, 93.34 63.21 05/21/2019 08:26:45 81.12, 93.19 63.20 2.67 37
8 05/21/2019 09:16:48 -81.14, -98.67 116.72 05/21/2019 09:16:11 -81.14, -98.71 116.74 0.68 37
9 05/24/2019 04:00:31 81.12, 159.59 62.64 05/24/2019 04:01:03 81.12, 159.63 62.65 0.63 32




NCC Satellite Simultaneous Nadir Overpasses (SNOs) Prediction Service
